Flag for Canada Weather past 2 weeks in Delta, British Columbia, Canada

Now
46 °F

Light rain. Mostly cloudy.


Feels Like: 46 °F
Forecast: 40 / 53 °F
Wind: 2 mph from East

Location: Vancouver International Air-Port

Current Time: Feb 26, 2015 at 10:09:59 PM

Latest Report: Feb 26, 2015 at 9:00 PM


Visibility: 15 mi

Pressure: 29.91 "Hg

Humidity: 87%

Dew point: 43 °F

Location of DeltaLocation

Historic Weather in Delta — Graph

°F

Delta temperature yesterday

Maximum temperature yesterday: 46 °F (at 9:55 AM)
Minimum temperature yesterday: 39 °F (at 12:00 AM)
Average temperature yesterday: 44 °F

Past Weeks' High & Low Weather Summary

 TemperatureHumidityPressure
High54 °F (Feb 13, 11:00 AM)100% (Feb 12, 12:00 AM)30.50 "Hg (Feb 12, 12:00 AM)
Low32 °F (Feb 17, 6:00 AM)63% (Feb 18, 12:00 PM)29.91 "Hg (Feb 26, 9:00 PM)
Average45 °F90%30.31 "Hg
* Reported Feb 11 9:00 PM — Feb 26 9:00 PM, Delta, Weather by CustomWeather, © 2015

Note: Actual official high and low records may vary slightly from our data, if they occured in-between our weather recording intervals... More about our weather records

Advertising

Delta weather history for previous 24 hours

 ConditionsComfort  
Time TempWeatherWind HumidityBarometerVisibility
9:00 PM
Thu, Feb 26
46 °FLight rain. Mostly cloudy.2 mph87%29.91 "Hg15 mi
8:00 PM46 °FLight rain. Mostly cloudy.3 mph87%29.93 "Hg15 mi
7:00 PM48 °FLight rain. Mostly cloudy.6 mph82%29.95 "Hg15 mi
6:00 PM48 °FMostly cloudy.6 mph82%29.97 "Hg15 mi
5:00 PM48 °FMore clouds than sun.7 mph82%29.99 "Hg15 mi
4:00 PM48 °FMore clouds than sun.8 mph82%30.02 "Hg15 mi
3:00 PM48 °FMostly cloudy.7 mph82%30.05 "Hg15 mi
2:00 PM48 °FMostly cloudy.8 mph82%30.08 "Hg15 mi
1:00 PM48 °FMore clouds than sun.8 mph82%30.10 "Hg15 mi
12:00 PM46 °FDrizzle. Cloudy.8 mph93%30.14 "Hg15 mi
11:00 AM46 °FMostly cloudy.7 mph87%30.16 "Hg15 mi
10:47 AM46 °FMore clouds than sun.6 mph87%30.16 "Hg15 mi
10:00 AM46 °FMostly cloudy.6 mph87%30.17 "Hg15 mi
9:00 AM45 °FLow clouds.6 mph93%30.19 "Hg15 mi
8:00 AM45 °FMore clouds than sun.6 mph93%30.19 "Hg8 mi
7:00 AM45 °FMostly cloudy.5 mph93%30.19 "Hg7 mi
6:48 AM43 °FMostly cloudy.6 mph100%30.19 "Hg10 mi
6:00 AM43 °FMostly cloudy.5 mph93%30.20 "Hg15 mi
5:49 AM43 °FLow clouds.5 mph93%30.21 "Hg15 mi
5:00 AM43 °FPassing clouds.5 mph93%30.22 "Hg15 mi
4:00 AM43 °FMostly cloudy.2 mph93%30.23 "Hg15 mi
3:00 AM41 °FMostly cloudy.No wind93%30.25 "Hg15 mi
2:00 AM43 °FMostly cloudy.No wind93%30.25 "Hg15 mi
1:00 AM43 °FMostly cloudy.No wind93%30.27 "Hg12 mi
12:00 AM43 °FMostly cloudy.3 mph100%30.27 "Hg12 mi
11:00 PM
Wed, Feb 25
43 °FPassing clouds.5 mph93%30.27 "Hg15 mi
10:00 PM45 °FMostly cloudy.2 mph93%30.28 "Hg12 mi
Weather by CustomWeather, © 2015

See weather overviewHow to use our weather pages